This is the latest recevied weather packets stored in our database for station/object K3HM. If no packets are shown the sender has not sent any weather packets the latest 1 day(s).
| Time | Temp. | Humidity | Pressure | Rain* | Wind** | Luminosity | Snow |
|---|---|---|---|---|---|---|---|
| 1778016143 | 21.11° C | 46% | 1010.9 hPa | 0 mm | 4.02 m/s, 222° | 131 W/m² | - |
| 1778015840 | 21.11° C | 47% | 1010.5 hPa | 0 mm | 2.68 m/s, 261° | 140 W/m² | - |
| 1778015537 | 21.11° C | 47% | 1010.7 hPa | 0 mm | 2.24 m/s, 217° | 153 W/m² | - |
| 1778015234 | 21.11° C | 45% | 1011 hPa | 0 mm | 2.24 m/s, 221° | 168 W/m² | - |
| 1778014930 | 21.67° C | 45% | 1010.5 hPa | 0 mm | 2.24 m/s, 218° | 176 W/m² | - |
| 1778014628 | 21.67° C | 47% | 1010.7 hPa | 0 mm | 4.02 m/s, 270° | 178 W/m² | - |
| 1778014326 | 21.67° C | 47% | 1010.9 hPa | 0 mm | 1.79 m/s, 211° | 205 W/m² | - |
| 1778014022 | 21.67° C | 46% | 1010.7 hPa | 0 mm | 3.13 m/s, 261° | 256 W/m² | - |
| 1778013720 | 21.67° C | 45% | 1010.8 hPa | 0 mm | 4.92 m/s, 225° | 191 W/m² | - |
| 1778013418 | 22.22° C | 46% | 1010.9 hPa | 0 mm | 2.24 m/s, 273° | 180 W/m² | - |
| 1778013114 | 21.67° C | 44% | 1010.8 hPa | 0 mm | 3.58 m/s, 252° | 176 W/m² | - |
| 1778012809 | 22.78° C | 46% | 1010.9 hPa | 0 mm | 3.58 m/s, 293° | 240 W/m² | - |
| 1778012506 | 22.22° C | 47% | 1010.8 hPa | 0 mm | 4.02 m/s, 225° | 413 W/m² | - |
| 1778012202 | 22.22° C | 47% | 1010.5 hPa | 0 mm | 1.79 m/s, 214° | 184 W/m² | - |
| 1778011901 | 22.78° C | 46% | 1010.5 hPa | 0 mm | 2.68 m/s, 194° | 343 W/m² | - |
| 1778011598 | 22.78° C | 45% | 1010.7 hPa | 0 mm | 4.02 m/s, 268° | 476 W/m² | - |
| 1778011295 | 22.22° C | 45% | 1010.5 hPa | 0 mm | 2.68 m/s, 290° | 586 W/m² | - |
| 1778010991 | 23.33° C | 44% | 1010.4 hPa | 0 mm | 3.13 m/s, 214° | 295 W/m² | - |
| 1778010689 | 22.78° C | 47% | 1010.8 hPa | 0 mm | 2.68 m/s, 226° | 620 W/m² | - |
| 1778010386 | 22.22° C | 48% | 1010.5 hPa | 0 mm | 1.79 m/s, 235° | 606 W/m² | - |
| 1778010081 | 22.78° C | 44% | 1010.7 hPa | 0 mm | 3.13 m/s, 203° | 521 W/m² | - |
| 1778009779 | 22.78° C | 44% | 1010.7 hPa | 0 mm | 1.79 m/s, 292° | 502 W/m² | - |
| 1778009476 | 23.33° C | 43% | 1010.5 hPa | 0 mm | 4.02 m/s, 264° | 529 W/m² | - |
| 1778009174 | 22.22° C | 45% | 1010.7 hPa | 0 mm | 5.36 m/s, 217° | 503 W/m² | - |
| 1778008871 | 22.78° C | 44% | 1010.9 hPa | 0 mm | 2.68 m/s, 259° | 250 W/m² | - |
* Rain latest hour (hover to see other rain measurements)
** Current wind speed in m/s (hover to see current wind gust speed)